| time (UTC) | temp F | wind direction | speed MPH | gust MPH | rain 1hr in | rain 24hr in | rain mn in | humidity % | barometer mb |
| 20260509183103 | 57 | 305 | 0.0 | 4.0 | 0.01 | 0.05 | 0.04 | 86 | 1011.7 |
| 20260509181553 | 59 | 224 | 2.0 | 5.0 | 0.00 | 0.04 | 0.03 | 80 | 1011.5 |
| 20260509180052 | 61 | 253 | 3.0 | 13.0 | 0.00 | 0.04 | 0.03 | 71 | 1010.9 |
| 20260509174553 | 61 | 253 | 1.0 | 9.0 | 0.00 | 0.04 | 0.03 | 72 | 1010.7 |
| 20260509173052 | 61 | 221 | 1.0 | 7.0 | 0.00 | 0.04 | 0.03 | 72 | 1010.5 |
| 20260509171546 | 60 | 250 | 1.0 | 3.0 | 0.00 | 0.04 | 0.03 | 77 | 1010.5 |
| 20260509170041 | 59 | 274 | 0.0 | 3.0 | 0.00 | 0.04 | 0.03 | 78 | 1010.6 |
| 20260509164539 | 59 | 209 | 0.0 | 3.0 | 0.00 | 0.04 | 0.03 | 79 | 1010.9 |
| 20260509163046 | 59 | 110 | 0.0 | 2.0 | 0.00 | 0.04 | 0.03 | 81 | 1010.9 |
| 20260509161542 | 58 | 80 | 0.0 | 2.0 | 0.00 | 0.04 | 0.03 | 83 | 1011.4 |
| 20260509160032 | 58 | 87 | 0.0 | 2.0 | 0.00 | 0.04 | 0.03 | 86 | 1011.4 |
| 20260509154529 | 57 | 41 | 0.0 | 3.0 | 0.00 | 0.04 | 0.03 | 86 | 1011.5 |
| 20260509153129 | 56 | 133 | 0.0 | 1.0 | 0.00 | 0.04 | 0.03 | 88 | 1011.9 |
| 20260509151525 | 55 | 133 | 0.0 | 0.0 | 0.00 | 0.04 | 0.03 | 90 | 1011.8 |
| 20260509150035 | 55 | 133 | 0.0 | 2.0 | 0.00 | 0.04 | 0.03 | 90 | 1012.0 |
| 20260509144522 | 55 | 120 | 0.0 | 0.0 | 0.00 | 0.04 | 0.03 | 91 | 1011.7 |
| 20260509143021 | 55 | 120 | 0.0 | 2.0 | 0.00 | 0.04 | 0.03 | 92 | 1011.8 |
| 20260509141517 | 53 | 120 | 0.0 | 2.0 | 0.00 | 0.04 | 0.03 | 93 | 1011.8 |
| 20260509140014 | 52 | 114 | 0.0 | 2.0 | 0.00 | 0.04 | 0.03 | 93 | 1011.9 |
| 20260509134512 | 52 | 228 | 0.0 | 1.0 | 0.01 | 0.04 | 0.03 | 94 | 1011.9 |
| 20260509133008 | 51 | 228 | 0.0 | 2.0 | 0.01 | 0.04 | 0.03 | 94 | 1012.0 |
| 20260509131506 | 51 | 228 | 0.0 | 2.0 | 0.01 | 0.04 | 0.03 | 94 | 1012.2 |
| 20260509130002 | 50 | 228 | 0.0 | 1.0 | 0.01 | 0.04 | 0.03 | 94 | 1012.2 |
| 20260509124501 | 50 | 228 | 0.0 | 2.0 | 0.00 | 0.03 | 0.02 | 95 | 1012.3 |
| 20260509123119 | 49 | 228 | 0.0 | 2.0 | 0.00 | 0.03 | 0.02 | 94 | 1012.5 |
| 20260509121600 | 49 | 228 | 0.0 | 2.0 | 0.00 | 0.03 | 0.02 | 95 | 1012.3 |
| 20260509120055 | 49 | 228 | 0.0 | 2.0 | 0.00 | 0.03 | 0.02 | 95 | 1012.0 |
| 20260509114554 | 49 | 228 | 0.0 | 2.0 | 0.00 | 0.03 | 0.02 | 95 | 1012.2 |
| 20260509113055 | 49 | 228 | 0.0 | 0.0 | 0.00 | 0.03 | 0.02 | 95 | 1012.6 |
| 20260509111551 | 48 | 228 | 0.0 | 0.0 | 0.00 | 0.03 | 0.02 | 95 | 1012.6 |
| 20260509110050 | 48 | 228 | 0.0 | 0.0 | 0.00 | 0.03 | 0.02 | 95 | 1012.4 |
| 20260509104550 | 48 | 228 | 0.0 | 0.0 | 0.00 | 0.04 | 0.02 | 95 | 1012.3 |
| 20260509103058 | 48 | 228 | 0.0 | 0.0 | 0.00 | 0.04 | 0.02 | 95 | 1012.2 |
| 20260509101549 | 48 | 228 | 0.0 | 0.0 | 0.00 | 0.04 | 0.02 | 95 | 1011.9 |
| 20260509100052 | 48 | 228 | 0.0 | 0.0 | 0.00 | 0.04 | 0.02 | 95 | 1012.0 |
| 20260509094548 | 48 | 228 | 0.0 | 0.0 | 0.00 | 0.04 | 0.02 | 95 | 1012.0 |
| 20260509093047 | 48 | 228 | 0.0 | 0.0 | 0.00 | 0.04 | 0.02 | 95 | 1012.0 |
| 20260509091546 | 48 | 228 | 0.0 | 1.0 | 0.00 | 0.04 | 0.02 | 95 | 1012.3 |
| 20260509090053 | 48 | 228 | 0.0 | 2.0 | 0.00 | 0.04 | 0.02 | 95 | 1012.2 |
| 20260509084548 | 48 | 228 | 0.0 | 0.0 | 0.00 | 0.04 | 0.02 | 95 | 1012.0 |
| 20260509083051 | 48 | 228 | 0.0 | 0.0 | 0.00 | 0.04 | 0.02 | 94 | 1012.3 |
| 20260509081543 | 48 | 228 | 0.0 | 0.0 | 0.00 | 0.04 | 0.02 | 94 | 1012.2 |
| 20260509080043 | 48 | 228 | 0.0 | 0.0 | 0.00 | 0.04 | 0.02 | 94 | 1012.3 |
| 20260509074546 | 48 | 228 | 0.0 | 0.0 | 0.00 | 0.04 | 0.02 | 94 | 1012.4 |
| 20260509073042 | 48 | 228 | 0.0 | 0.0 | 0.00 | 0.04 | 0.02 | 94 | 1012.4 |
| 20260509071544 | 48 | 228 | 0.0 | 0.0 | 0.00 | 0.04 | 0.02 | 94 | 1012.2 |
| 20260509070042 | 48 | 228 | 0.0 | 0.0 | 0.00 | 0.04 | 0.02 | 94 | 1012.0 |
| 20260509064539 | 48 | 228 | 0.0 | 0.0 | 0.00 | 0.08 | 0.02 | 94 | 1012.2 |
| 20260509063036 | 48 | 228 | 0.0 | 0.0 | 0.01 | 0.08 | 0.02 | 93 | 1012.6 |
| 20260509061536 | 48 | 228 | 0.0 | 0.0 | 0.02 | 0.08 | 0.02 | 93 | 1012.5 |
| 20260509060038 | 48 | 228 | 0.0 | 1.0 | 0.02 | 0.08 | 0.02 | 93 | 1012.5 |
| 20260509054532 | 48 | 228 | 0.0 | 0.0 | 0.02 | 0.10 | 0.02 | 92 | 1012.8 |
| 20260509053031 | 48 | 228 | 0.0 | 3.0 | 0.01 | 0.09 | 0.01 | 92 | 1012.8 |
| 20260509051530 | 48 | 228 | 0.0 | 0.0 | 0.00 | 0.08 | 0.00 | 91 | 1012.8 |
| 20260509050043 | 48 | 228 | 0.0 | 0.0 | 0.00 | 0.08 | 0.00 | 91 | 1013.2 |
| 20260509044527 | 48 | 228 | 0.0 | 0.0 | 0.00 | 0.08 | 0.00 | 90 | 1012.9 |
| 20260509043025 | 48 | 228 | 0.0 | 0.0 | 0.00 | 0.08 | 0.00 | 90 | 1012.9 |
| 20260509041523 | 49 | 228 | 0.0 | 0.0 | 0.00 | 0.08 | 0.00 | 89 | 1012.9 |
| 20260509040019 | 49 | 228 | 0.0 | 0.0 | 0.00 | 0.08 | 0.08 | 89 | 1013.0 |
| 20260509034519 | 49 | 228 | 0.0 | 0.0 | 0.00 | 0.08 | 0.08 | 88 | 1012.8 |
| 20260509033018 | 49 | 228 | 0.0 | 0.0 | 0.00 | 0.08 | 0.08 | 87 | 1013.0 |
| 20260509031529 | 50 | 228 | 0.0 | 0.0 | 0.00 | 0.08 | 0.08 | 87 | 1013.2 |
| 20260509030016 | 50 | 228 | 0.0 | 0.0 | 0.00 | 0.08 | 0.08 | 87 | 1013.1 |
| 20260509024529 | 50 | 228 | 0.0 | 0.0 | 0.00 | 0.08 | 0.08 | 86 | 1013.1 |
| 20260509023018 | 50 | 228 | 0.0 | 0.0 | 0.00 | 0.08 | 0.08 | 85 | 1013.0 |
| 20260509021516 | 50 | 228 | 0.0 | 0.0 | 0.00 | 0.08 | 0.08 | 85 | 1012.8 |
| 20260509020012 | 50 | 228 | 0.0 | 0.0 | 0.00 | 0.08 | 0.08 | 85 | 1012.6 |
| 20260509014511 | 50 | 228 | 0.0 | 2.0 | 0.00 | 0.08 | 0.08 | 84 | 1012.4 |
| 20260509013021 | 50 | 228 | 0.0 | 0.0 | 0.00 | 0.08 | 0.08 | 83 | 1012.2 |
| 20260509011511 | 50 | 228 | 0.0 | 0.0 | 0.00 | 0.08 | 0.08 | 81 | 1011.8 |
| 20260509010013 | 51 | 228 | 0.0 | 0.0 | 0.00 | 0.08 | 0.08 | 80 | 1011.9 |
| 20260509004508 | 51 | 228 | 0.0 | 0.0 | 0.00 | 0.08 | 0.08 | 79 | 1011.6 |
| 20260509003008 | 52 | 228 | 0.0 | 0.0 | 0.00 | 0.08 | 0.08 | 76 | 1011.5 |
| 20260509001507 | 53 | 228 | 0.0 | 0.0 | 0.00 | 0.08 | 0.08 | 74 | 1011.4 |
| 20260509000010 | 54 | 228 | 0.0 | 0.0 | 0.00 | 0.08 | 0.08 | 69 | 1011.4 |
| 20260508234507 | 55 | 228 | 0.0 | 1.0 | 0.00 | 0.08 | 0.08 | 63 | 1011.3 |
| 20260508233006 | 56 | 228 | 0.0 | 1.0 | 0.00 | 0.08 | 0.08 | 60 | 1011.2 |
| 20260508231506 | 56 | 228 | 1.0 | 3.0 | 0.00 | 0.08 | 0.08 | 59 | 1011.2 |
| 20260508230004 | 56 | 228 | 1.0 | 4.0 | 0.00 | 0.08 | 0.08 | 59 | 1011.2 |
| 20260508224506 | 56 | 228 | 0.0 | 2.0 | 0.00 | 0.08 | 0.08 | 60 | 1011.0 |
| 20260508223011 | 56 | 227 | 0.0 | 4.0 | 0.00 | 0.08 | 0.08 | 58 | 1010.9 |
| 20260508221503 | 57 | 218 | 0.0 | 2.0 | 0.00 | 0.08 | 0.08 | 59 | 1011.0 |
| 20260508220006 | 57 | 218 | 1.0 | 5.0 | 0.00 | 0.08 | 0.08 | 58 | 1011.0 |
| 20260508214502 | 57 | 215 | 2.0 | 8.0 | 0.00 | 0.08 | 0.08 | 57 | 1010.9 |
| 20260508213008 | 56 | 220 | 0.0 | 3.0 | 0.00 | 0.08 | 0.08 | 60 | 1011.0 |
| 20260508211501 | 55 | 222 | 3.0 | 7.0 | 0.00 | 0.08 | 0.08 | 60 | 1011.2 |
| 20260508204622 | 55 | 276 | 1.0 | 4.0 | 0.00 | 0.08 | 0.08 | 62 | 1011.2 |
| 20260508203103 | 55 | 249 | 2.0 | 8.0 | 0.00 | 0.08 | 0.08 | 63 | 1011.2 |
| 20260508201614 | 55 | 294 | 3.0 | 9.0 | 0.00 | 0.08 | 0.08 | 62 | 1011.2 |
| 20260508200128 | 55 | 224 | 1.0 | 6.0 | 0.00 | 0.08 | 0.08 | 68 | 1011.1 |
| 20260508194558 | 54 | 273 | 1.0 | 8.0 | 0.00 | 0.08 | 0.08 | 69 | 1011.3 |
| 20260508193058 | 53 | 283 | 0.0 | 5.0 | 0.01 | 0.08 | 0.08 | 75 | 1011.5 |
| 20260508191558 | 51 | 305 | 0.0 | 5.0 | 0.01 | 0.08 | 0.08 | 74 | 1012.0 |
| 20260508190104 | 50 | 4 | 1.0 | 8.0 | 0.01 | 0.08 | 0.08 | 77 | 1012.0 |
| 20260508184555 | 51 | 299 | 2.0 | 11.0 | 0.01 | 0.08 | 0.08 | 73 | 1012.3 |